Regional Weather Roundup
Issued by NWS New Orleans/Baton Rouge, LA

Current Version | Previous Version | Text Only | Print | Product List | Glossary On
Versions: 1 2 3 4 5 6 7 8 9 10 11 12 13 14 15 16 17 18 19 20 21 22 23 24 25 26 27 28 29 30 31 32 33 34 35 36 37 38 39 40 41 42 43 44 45 46 47 48 49 50
000
ASUS44 KLIX 161413
RWRLIX
NEW ORLEANS REGIONAL WEATHER ROUNDUP
NATIONAL WEATHER SERVICE NEW ORLEANS LA
800 AM CST MON JAN 16 2017

NOTE: "FAIR" INDICATES FEW OR NO CLOUDS BELOW 12,000 FEET WITH NO
      SIGNIFICANT WEATHER AND/OR OBSTRUCTIONS TO VISIBILITY.
      SKY/WX - SKY CONDITION AND SIGNIFICANT WEATHER.
      TMP - AIR TEMPERATURE.     DP    - DEWPOINT TEMPERATURE.
      RH  - RELATIVE HUMIDITY.   PRES  - PRESSURE.
      HI  - HEAT INDEX.          WCI   - WIND CHILL INDEX.

*  THESE STATIONS ARE NOT NWS OR FAA STATIONS AND ARE NOT UNDER
   NWS QUALITY CONTROL.

LAZ038-040-048-061>063-065>067-069-161500-
SOUTHEAST LOUISIANA

CITY           SKY/WX    TMP DP  RH WIND       PRES   REMARKS
N.O. AUDUBON   NOT AVBL
N.O. INTL ARPT MOSUNNY   65  64  97 SE7       30.13R
N.O. LAKEFRONT SUNNY     66  64  93 SE6       30.14R
N.O. DOWNTOWN*   N/A     67  64  90 CALM      30.14R
RESERVE*       CLOUDY    67  65  94 SE3       30.14R
SLIDELL        PTSUNNY   67  64  90 SE5       30.14R
BATON ROUGE    CLOUDY    67  65  93 SE7       30.12R
BOOTHVILLE     SUNNY     63  63 100 SE8       30.15R
BELLE CHASSE   SUNNY     66  65  96 SE8       30.12R
BOGALUSA*      CLOUDY    63  60  91 N3        30.17R
GALLIANO*      SUNNY     67  63  86 SE5       30.12R
NEW ROADS*     CLOUDY    66  64  95 SE8       30.12R FOG
GONZALES*      CLOUDY    65  65 100 CALM      30.12R
HAMMOND*       MOSUNNY   64  63  94 SE3       30.14R
HOUMA*         SUNNY     66  66 100 SE9       30.12R
PORT FOURCHON* SUNNY     68  66  94 SE12      30.12R

$$

MSZ070-080>082-161500-
SOUTHERN MISSISSIPPI

CITY           SKY/WX    TMP DP  RH WIND       PRES   REMARKS
MCCOMB         CLOUDY    66  63  90 SE7       30.14R
GULFPORT       SUNNY     66  63  90 SE15      30.15R
BILOXI         SUNNY     67  65  93 SE9       30.15R
PASCAGOULA     SUNNY     65  62  90 SE5       30.17R
STENNIS ARPT*  SUNNY     64  61  88 CALM      30.15R

$$

COASTAL OBSERVATIONS
LAKE AND NEARSHORE STATIONS

STATION/POSITION TIME  TEMP    WIND        PRES    WAVE
                       AIR SEA DIR/SP/G            HT/PER
                 (UTC) (F)     (DEG/KT/KT) (MB)    (FT/S)
PASCAGOULA       1342   66     110/ 11/ 15 1020.8
WAVELAND YACHT   1342   64 60  150/  8/  9 1020.7
GRAND ISLE       1342   67 64  130/  6/ 11 1019.8
SOUTHWEST PASS   1342          120/ 13/ 15   N/A
NEW CANAL        1342   65 57  120/  2/  8 1019.3
SHELL BEACH      1342   66 62  120/  9/ 12 1020.2

OFFSHORE STATIONS

STATION/POSITION TIME  TEMP    WIND        PRES    WAVE
                       AIR SEA DIR/SP/G            HT/PER
                 (UTC) (F)     (DEG/KT/KT) (MB)    (FT/S)

$$




USA.gov is the U.S. government's official web portal to all federal, state and local government web resources and services.